Location: *
(2.5500°S, 65.9667°W)
Time: 15:44:47
(UTC+00:00)

H-2A R/B - Pass Details

Date: 07 June 2022
Orbit: 734 x 836 km, 98.2° (Epoch: 03 July)

Event Time Altitude Azimuth Distance (km) Brightness Sun altitude
Rises 23:09:33 0° 194° (SSW) 3,191 5.1 -11.7°
Reaches altitude 10° 23:12:20 10° 210° (SSW) 2,278 4.5 -12.4°
Maximum altitude 23:16:00 21° 257° (WSW) 1,680 4.5 -13.2°
Drops below altitude 10° 23:19:44 10° 305° (NW) 2,315 5.8 -14.1°
Sets 23:22:37 0° 321° (NW) 3,258 6.4 -14.8°
